Home   Weather   Ottawa   Past weeks
Flag for Canada

Past Weather in Ottawa, Ontario, Canada — Yesterday and Last 2 Weeks

Now
50 °F

Light rain. Mostly cloudy.


Feels Like: 44 °F
Forecast: 50 / 46 °F
Wind: 20 mph from East

Location: Ottawa Int'L. Ont.

Current Time: Oct 16, 2019 at 11:59:27 pm

Latest Report: Oct 16, 2019 at 11:00 pm


Visibility: 10 mi

Pressure: 29.44 "Hg

Humidity: 100%

Dew Point: 50 °F

Location of OttawaLocation

Past Weather in Ottawa — Graph

°F

Ottawa Temperature Yesterday

Maximum temperature yesterday: 55 °F (at 2:00 pm)
Minimum temperature yesterday: 36 °F (at 5:05 am)
Average temperature yesterday: 47 °F

High & Low Weather Summary for the Past Weeks

 TemperatureHumidityPressure
High68 °F (Oct 11, 3:00 pm)100% (Oct 1, 11:00 pm)30.51 "Hg (Oct 1, 11:00 pm)
Low28 °F (Oct 5, 7:00 am)26% (Oct 11, 2:00 pm)29.46 "Hg (Oct 16, 10:00 pm)
Average49 °F74%30.12 "Hg
* Reported Oct 1 10:00 pm — Oct 16 10:00 pm, Ottawa. Weather by CustomWeather, © 2019

Note: Actual official high and low records may vary slightly from our data, if they occured in-between our weather recording intervals... More about our weather records

Advertising

Ottawa Weather History for the Previous 24 Hours

Scroll right to see more
 ConditionsComfort  
Time TempWeatherWind HumidityBarometerVisibility
10:00 pm
Wed, Oct 16
50 °FLight rain. Mostly cloudy.16 mph100%29.46 "Hg10 mi
9:00 pm52 °FLight rain. Fog.13 mph94%29.50 "Hg4 mi
8:00 pm54 °FLight rain. Fog.14 mph94%29.52 "Hg6 mi
7:00 pm54 °FLight rain. Fog.8 mph94%29.54 "Hg6 mi
6:00 pm52 °FLight rain. Fog.No wind100%29.56 "Hg6 mi
5:00 pm57 °FLight rain. Cloudy.16 mph82%29.57 "Hg8 mi
4:00 pm59 °FLight rain. Mostly cloudy.10 mph72%29.55 "Hg15 mi
3:36 pm57 °FMostly cloudy.9 mph72%29.56 "Hg15 mi
3:05 pm55 °FLight rain. Mostly cloudy.12 mph72%29.57 "Hg15 mi
2:00 pm54 °FMostly cloudy.15 mph72%29.61 "Hg15 mi
1:00 pm50 °FCloudy.10 mph82%29.66 "Hg15 mi
12:26 pm50 °FCloudy.12 mph82%29.68 "Hg15 mi
12:00 pm50 °FLight rain. Cloudy.9 mph76%29.69 "Hg15 mi
11:28 am50 °FLight rain. Mostly cloudy.12 mph71%29.70 "Hg15 mi
11:00 am50 °FMostly cloudy.10 mph71%29.72 "Hg15 mi
10:00 am48 °FCloudy.15 mph71%29.71 "Hg15 mi
9:00 am45 °FCloudy.16 mph81%29.73 "Hg15 mi
8:00 am45 °FBroken clouds.10 mph76%29.80 "Hg15 mi
7:00 am43 °FPartly cloudy.10 mph81%29.81 "Hg15 mi
6:00 am43 °FOvercast.9 mph81%29.85 "Hg15 mi
5:00 am43 °FMostly cloudy.14 mph81%29.87 "Hg15 mi
4:00 am45 °FPassing clouds.13 mph76%29.90 "Hg15 mi
3:00 am45 °FOvercast.8 mph76%29.94 "Hg15 mi
2:00 am46 °FMostly cloudy.8 mph71%29.96 "Hg15 mi
1:00 am45 °FOvercast.7 mph76%29.97 "Hg15 mi
12:00 am45 °FPassing clouds.5 mph76%29.99 "Hg15 mi
11:00 pm
Tue, Oct 15
43 °FPassing clouds.6 mph81%30.01 "Hg15 mi
Weather by CustomWeather, © 2019

See weather overview